This is the latest recevied weather packets stored in our database for station/object KE8AFF-13. If no packets are shown the sender has not sent any weather packets the latest 10 day(s).
| Time | Temp. | Humidity | Pressure | Rain* | Wind** | Luminosity | Snow |
|---|---|---|---|---|---|---|---|
| 1778010206 | 15.56° C | 95% | 1007.2 hPa | 0 mm | - | 43 W/m² | - |
| 1778009901 | 15.56° C | 95% | 1007.1 hPa | 0 mm | - | 30 W/m² | - |
| 1778009599 | 15.56° C | 95% | 1007.4 hPa | 0 mm | - | 26 W/m² | - |
| 1778009297 | 15.56° C | 94% | 1007.2 hPa | 0 mm | - | 35 W/m² | - |
| 1778008995 | 15.56° C | 94% | 1007.4 hPa | 0 mm | - | 42 W/m² | - |
| 1778008692 | 15.56° C | 94% | 1007.6 hPa | 0.51 mm | - | 52 W/m² | - |
| 1778008390 | 15.56° C | 93% | 1007.7 hPa | 1.27 mm | - | 65 W/m² | - |
| 1778008086 | 16.11° C | 92% | 1007.5 hPa | 1.27 mm | - | 93 W/m² | - |
| 1778007782 | 16.11° C | 91% | 1007.5 hPa | 0.51 mm | - | 111 W/m² | - |
| 1778007478 | 16.11° C | 91% | 1007.5 hPa | 0 mm | - | 133 W/m² | - |
| 1778007175 | 16.11° C | 91% | 1007.7 hPa | 0 mm | - | 169 W/m² | - |
| 1778006870 | 16.11° C | 91% | 1007.4 hPa | 0 mm | - | 229 W/m² | - |
| 1778006568 | 16.11° C | 91% | 1007.5 hPa | 0 mm | - | 157 W/m² | - |
| 1778006265 | 16.11° C | 91% | 1007.7 hPa | 0 mm | - | 137 W/m² | - |
| 1778005962 | 16.11° C | 91% | 1007.5 hPa | 0 mm | - | 204 W/m² | - |
| 1778005659 | 16.11° C | 89% | 1007.5 hPa | 0 mm | - | 173 W/m² | - |
| 1778005355 | 16.67° C | 88% | 1007.6 hPa | 0 mm | - | 229 W/m² | - |
| 1778005052 | 16.67° C | 87% | 1007.6 hPa | 0 mm | - | 195 W/m² | - |
| 1778004750 | 16.67° C | 85% | 1007.6 hPa | 0 mm | - | 163 W/m² | - |
| 1778004446 | 16.67° C | 83% | 1007.4 hPa | 0 mm | - | 136 W/m² | - |
| 1778004142 | 17.22° C | 82% | 1007.5 hPa | 0 mm | - | 173 W/m² | - |
| 1778003839 | 17.22° C | 83% | 1007.6 hPa | 0 mm | - | 206 W/m² | - |
| 1778003536 | 17.22° C | 83% | 1007.8 hPa | 0 mm | - | 186 W/m² | - |
| 1778003232 | 17.22° C | 82% | 1007.6 hPa | 0 mm | - | 104 W/m² | - |
| 1778002929 | 17.78° C | 80% | 1007.7 hPa | 0 mm | - | 75 W/m² | - |
* Rain latest hour (hover to see other rain measurements)
** Current wind speed in m/s (hover to see current wind gust speed)